Vertical_Velocity
0 -0 -2 1 -2 0 -2 -1 -3 -1 -1 -2 1 1 2 -1 -4 1 3 -1 -2 -1 1 1 -2 2 1 1 -0 -1 1 3 1 2 3 -2 2 0 -2 -1 -2 2 2 -5
2 -4 -3 -3 -1 -1 -0 0 -1 -0 -1 -2 -1 -1 -0 -1 -2 -2 1 2 3 -2 -0 2 -2 -0 2 1 3 1 5 3 3 3 6 5 2 4 0 -0 -1 -1 4 -1
-1 -1 0 1 -1 -0 -1 2 -5 -3 0 -1 -1 -3 0 -0 -3 -3 2 1 5 -1 1 2 -0 2 -0 -1 2 4 4 3 -1 1 0 2 2 5 6 1 2 -2 4 -1
2 0 2 2 -1 -1 -2 -1 3 -0 -1 -3 -3 -4 -0 -1 -4 3 0 -4 -2 3 -5 -4 0 1 3 1 3 1 -1 0 2 1 0 2 2 2 5 5 3 3 -1 2
4 4 1 -0 -1 -0 -0 4 -5 -5 1 -1 -3 -2 1 -3 -4 2 -3 -3 -2 -2 3 3 1 3 1 1 -3 -1 -0 -3 -2 -0 1 -2 -1 0 0 2 1 6 5 2
2 1 -3 -1 2 -1 -3 1 -3 2 -2 3 7 0 -0 -4 5 -2 -1 -1 -2 -1 3 6 6 0 0 -0 0 -4 -3 -1 0 -1 1 3 3 -0 -0 1 0 0 5 1
-1 -1 2 0 1 -0 -1 1 -3 2 -7 2 6 -1 2 11 10 -12 1 1 -0 10 5 6 5 11 -3 -6 -2 2 2 1 0 -1 -3 -1 1 3 3 2 1 2 3 -1
1 4 2 5 -1 0 5 0 -6 -2 -3 -8 -7 -4 -5 4 1 -9 -1 6 0 -1 -9 8 8 -3 -3 9 4 -2 -1 -0 1 3 -2 -6 0 -0 3 4 0 1 -3 1
3 1 1 3 1 0 2 3 -2 -3 -1 -8 -2 4 3 -2 -2 -6 -6 3 0 11 -16 -25 19 -4 11 7 4 2 -1 -0 -8 -6 -8 -9 -7 -4 1 -0 3 1 1 -2
1 5 -0 -6 6 6 4 2 -1 -4 0 -3 -1 3 -1 0 0 -1 5 -5 8 6 -30 -13 8 -3 7 6 -1 -2 -13 -3 7 5 -8 -4 -10 -9 -4 -0 2 3 3 -2
-2 4 3 3 -2 2 -2 -2 -6 -2 -1 0 -2 -8 -1 -1 -1 -2 -4 -3 9 14 -6 1 23 21 14 -2 4 22 1 -10 4 8 14 0 -2 2 -6 -2 -2 2 2 3
0 -1 0 -1 -1 1 -1 1 0 1 -0 -5 3 -3 5 -6 -2 -1 5 -0 -3 11 11 5 -3 -14 -9 -7 75 338 27 -21 9 5 2 11 20 6 2 -3 -3 1 2 4
5 3 2 2 -0 -2 2 1 1 -4 -6 -2 -5 -5 -3 -2 2 -0 -2 -6 -2 7 3 -16 -8 -1 10 -9 14 28 -15 72 14 4 0 -13 -6 8 10 3 2 -1 3 2
1 -1 -2 0 -0 -1 -0 4 1 -1 -8 4 -13 -2 -3 -2 0 -2 0 3 8 9 -2 -10 -6 -2 -1 10 4 10 2 -1 -2 3 -20 3 -15 -8 -2 0 6 -4 0 6
-2 -2 2 5 3 -1 4 8 7 -1 -12 0 -4 -2 -2 -4 -2 1 3 3 2 7 12 6 -5 -5 -10 7 5 3 8 15 -1 -16 -2 -12 10 2 -13 26 15 -0 2 2
1 -1 -1 -1 -3 -0 6 -1 3 0 -5 -7 -3 -5 -0 -2 -4 -5 -2 -1 2 -0 4 7 10 5 -6 -17 5 8 9 -5 -1 -8 -10 -9 -19 -4 3 2 -11 -6 -10 6
-1 -1 -1 2 -3 4 1 -1 -1 -1 5 1 -1 -0 -3 1 2 -1 -8 -7 -4 -1 4 8 8 11 11 8 -6 -6 -0 5 2 -5 -12 -3 -7 4 19 12 10 4 11 18
-1 -1 -0 -0 -1 2 3 -2 -1 -2 -1 1 1 0 1 -2 -4 -5 -5 -4 -6 -10 -9 -9 -5 2 5 7 0 -7 -4 -8 -2 4 6 -7 -8 0 -2 8 6 24 55 19
-2 -1 -2 -2 1 2 2 2 -0 3 -2 -7 -5 2 4 4 1 -6 -3 -5 -7 -7 -10 -9 -8 -7 0 3 6 8 5 -2 -5 -8 -5 -10 -9 -8 -1 -2 -3 11 20 14
0 1 1 -2 -2 -5 4 6 -0 0 -6 8 2 -3 -3 3 -7 -4 -5 -2 -6 -6 -5 -3 -5 -10 -7 -4 -8 -0 6 11 4 6 -3 -7 -5 -3 -5 -5 -4 -4 -2 2
-0 -1 2 1 -1 -5 -1 4 9 1 3 5 8 8 6 4 3 5 -2 -3 -8 -5 -3 -9 -6 -2 -0 -1 -4 -3 -5 -0 1 4 1 1 5 -1 -0 0 -7 -1 -5 -7
-1 -4 -3 -2 -1 -5 3 -3 1 -1 0 1 0 -3 -1 -0 1 2 -0 -5 -3 -1 4 2 -8 -0 1 -5 -6 -3 1 -1 -4 -3 3 6 -3 -0 -0 -0 -5 -5 -5 2
-4 -0 -3 -2 -4 -7 -1 1 1 3 2 1 1 -4 -3 -1 4 4 2 -0 -2 -3 -1 1 -2 -0 2 -0 -5 -4 4 -2 -3 -4 2 3 5 -0 -4 1 -2 -1 -6 3
2 1 1 3 1 -2 -1 -1 -3 -3 -1 -2 -5 -3 -1 -2 -0 0 -3 1 -1 0 -1 -2 -1 -1 -1 -1 -2 -3 1 -2 -2 0 -0 -0 5 -0 -3 -3 -0 -1 -6 2
-0 -2 3 1 4 1 1 -3 -2 -3 -6 -5 -4 -1 -2 -7 2 -1 3 2 -1 -1 -2 -1 -1 -3 0 -2 -0 -3 -4 -8 -3 -3 1 2 4 0 -0 -1 -0 -3 1 1
0 1 0 -2 -1 -1 1 3 -2 -2 -1 -3 1 -1 -1 -9 -2 -3 -1 -1 -1 1 1 0 -1 -4 -1 -2 -2 0 -7 -6 -4 -2 -1 -0 -1 2 -2 1 -0 -1 1 2
Height
5913 5915 5916 5918 5918 5918 5917 5921 5922 5923 5923 5923 5924 5925 5924 5922 5921 5921 5921 5919 5918 5917 5916 5914 5914 5914 5913 5913 5911 5911 5911 5911 5911 5911 5910 5909 5908 5911 5912 5911 5910 5911 5911 5911
5914 5913 5914 5915 5916 5916 5919 5920 5921 5922 5922 5922 5922 5923 5922 5922 5921 5921 5922 5922 5921 5919 5919 5917 5915 5915 5914 5913 5912 5911 5911 5912 5911 5910 5910 5908 5908 5910 5911 5911 5911 5911 5911 5912
5912 5914 5914 5915 5915 5917 5918 5919 5919 5921 5922 5922 5921 5921 5921 5920 5919 5920 5922 5922 5922 5921 5920 5918 5915 5915 5915 5913 5912 5911 5910 5909 5909 5907 5907 5907 5909 5911 5911 5911 5912 5911 5911 5910
5911 5912 5912 5913 5915 5917 5918 5918 5920 5919 5919 5920 5919 5920 5920 5919 5918 5920 5920 5919 5918 5919 5916 5915 5915 5914 5913 5912 5912 5909 5906 5905 5905 5904 5906 5907 5907 5908 5910 5909 5910 5911 5911 5909
5910 5910 5911 5912 5914 5916 5919 5919 5917 5919 5920 5921 5920 5921 5920 5917 5918 5920 5917 5914 5917 5915 5915 5914 5913 5912 5911 5911 5910 5907 5905 5902 5903 5904 5904 5905 5905 5906 5907 5908 5908 5908 5909 5909
5907 5908 5909 5912 5914 5916 5917 5917 5918 5920 5921 5922 5921 5920 5919 5916 5919 5917 5913 5914 5914 5913 5914 5915 5915 5913 5911 5909 5908 5908 5906 5905 5904 5903 5902 5902 5903 5904 5904 5905 5906 5906 5906 5907
5905 5906 5910 5912 5914 5916 5916 5917 5918 5920 5918 5919 5919 5918 5917 5919 5917 5910 5909 5911 5912 5914 5914 5916 5916 5913 5911 5909 5907 5906 5907 5906 5905 5905 5904 5901 5900 5900 5902 5904 5905 5905 5906 5905
5904 5909 5909 5910 5912 5915 5916 5916 5916 5917 5917 5917 5915 5917 5915 5915 5912 5910 5909 5911 5910 5908 5909 5906 5913 5915 5910 5909 5909 5908 5906 5904 5902 5901 5902 5902 5900 5898 5898 5900 5902 5903 5904 5904
5905 5907 5906 5909 5911 5914 5914 5915 5914 5916 5916 5914 5914 5915 5914 5912 5911 5908 5907 5912 5908 5904 5907 5897 5898 5909 5912 5908 5904 5903 5905 5902 5901 5900 5897 5899 5898 5898 5897 5896 5898 5899 5900 5901
5905 5907 5905 5906 5910 5912 5912 5912 5913 5913 5914 5912 5911 5911 5910 5910 5909 5906 5906 5907 5909 5907 5900 5899 5898 5904 5907 5908 5904 5900 5901 5900 5902 5900 5897 5895 5896 5894 5895 5894 5894 5894 5897 5897
5902 5904 5906 5908 5906 5905 5905 5906 5907 5909 5911 5908 5907 5906 5905 5903 5903 5904 5904 5906 5904 5906 5896 5898 5898 5902 5902 5898 5895 5891 5891 5894 5896 5898 5898 5891 5889 5890 5890 5891 5891 5890 5892 5894
5898 5900 5902 5905 5903 5903 5903 5902 5903 5904 5906 5904 5903 5903 5899 5896 5896 5897 5900 5901 5905 5902 5897 5894 5891 5887 5889 5890 5882 5849 5879 5882 5888 5891 5891 5891 5887 5884 5884 5885 5886 5886 5886 5888
5897 5898 5899 5902 5901 5900 5900 5899 5899 5899 5900 5899 5898 5896 5894 5893 5894 5894 5894 5895 5896 5894 5892 5889 5887 5887 5884 5885 5882 5873 5873 5851 5873 5881 5883 5883 5882 5881 5880 5880 5880 5880 5881 5881
5891 5891 5892 5894 5893 5893 5894 5896 5895 5895 5894 5893 5892 5890 5890 5890 5890 5889 5889 5889 5890 5888 5883 5882 5883 5882 5879 5878 5877 5869 5871 5870 5872 5876 5881 5879 5876 5875 5875 5874 5875 5876 5875 5876
5885 5885 5888 5890 5889 5888 5889 5891 5890 5888 5887 5887 5887 5885 5883 5883 5883 5883 5882 5881 5878 5876 5875 5873 5871 5870 5869 5866 5864 5864 5857 5856 5856 5862 5869 5869 5868 5867 5868 5870 5870 5869 5869 5869
5881 5880 5882 5882 5881 5881 5884 5882 5881 5880 5880 5880 5880 5878 5876 5874 5874 5875 5875 5872 5869 5867 5865 5861 5860 5859 5859 5857 5851 5848 5846 5840 5842 5844 5853 5857 5853 5859 5861 5861 5863 5864 5862 5863
5875 5875 5875 5877 5875 5876 5876 5873 5871 5873 5873 5873 5872 5871 5869 5869 5867 5865 5862 5860 5858 5855 5852 5849 5847 5845 5843 5839 5839 5837 5836 5835 5830 5830 5833 5842 5847 5848 5849 5851 5850 5851 5851 5853
5866 5868 5869 5870 5868 5869 5867 5865 5864 5864 5863 5864 5863 5862 5861 5859 5856 5853 5850 5846 5843 5840 5838 5835 5832 5829 5826 5823 5820 5819 5816 5816 5820 5820 5818 5820 5828 5833 5835 5833 5835 5832 5820 5831
5859 5859 5860 5862 5861 5861 5858 5859 5858 5857 5855 5852 5852 5852 5851 5848 5844 5840 5837 5833 5830 5826 5822 5820 5817 5813 5810 5806 5803 5800 5796 5794 5793 5799 5803 5805 5808 5813 5818 5820 5820 5822 5818 5806
5852 5853 5854 5853 5852 5851 5853 5852 5850 5849 5846 5846 5844 5842 5838 5834 5829 5825 5820 5815 5811 5809 5806 5802 5800 5797 5794 5790 5787 5785 5783 5780 5779 5779 5780 5787 5790 5793 5797 5801 5803 5805 5808 5810
5845 5845 5845 5845 5844 5842 5843 5844 5843 5841 5840 5835 5834 5831 5827 5823 5818 5813 5808 5803 5797 5792 5788 5784 5781 5780 5777 5775 5773 5771 5769 5768 5767 5766 5767 5768 5772 5776 5779 5783 5787 5790 5793 5798
5836 5835 5837 5836 5836 5834 5833 5833 5833 5831 5827 5823 5819 5814 5808 5803 5798 5794 5789 5783 5778 5776 5772 5769 5766 5764 5762 5760 5759 5758 5758 5757 5756 5756 5757 5757 5758 5761 5764 5767 5771 5775 5780 5784
5829 5829 5829 5830 5827 5823 5822 5821 5819 5817 5813 5809 5805 5800 5794 5788 5783 5779 5773 5768 5764 5760 5757 5754 5752 5751 5750 5749 5746 5745 5746 5746 5745 5745 5746 5747 5747 5746 5747 5751 5757 5761 5766 5769
5822 5821 5821 5821 5819 5817 5815 5812 5808 5804 5800 5796 5791 5785 5779 5773 5766 5761 5756 5754 5750 5748 5744 5741 5739 5737 5737 5736 5735 5734 5733 5733 5733 5733 5734 5734 5735 5736 5735 5737 5743 5747 5751 5755
5812 5813 5813 5811 5810 5808 5805 5801 5798 5793 5788 5784 5779 5773 5766 5759 5753 5747 5744 5741 5738 5735 5733 5729 5727 5726 5726 5724 5723 5722 5721 5719 5718 5718 5719 5721 5722 5724 5725 5726 5729 5733 5738 5741
5807 5805 5804 5802 5799 5796 5794 5792 5787 5782 5778 5773 5768 5763 5757 5750 5744 5739 5736 5733 5729 5726 5723 5720 5716 5713 5713 5711 5709 5708 5706 5704 5703 5703 5704 5705 5707 5710 5713 5714 5717 5720 5726 5729